Location: Munkebjergskolens Observatorium
(55.3864°N, 10.3987°E)
Time: 11:06:57
(UTC+02:00)

JY1SAT - Pass Details

Date: 06 April 2023
Orbit: 555 x 574 km, 97.6° (Epoch: 02 June)

Event Time Altitude Azimuth Distance (km) Brightness Sun altitude
Exits shadow 21:59:10 28° 141° (SE) 1,085 ? -15.4°
Maximum altitude 22:01:09 61° 71° (ENE) 650 ? -15.6°
Drops below altitude 10° 22:05:10 10° 351° (N) 1,886 ? -16.0°
Sets 22:07:21 0° 348° (NNW) 2,793 ? -16.3°
